GFA174 OEJN-OBBI

Flight info

Callsign GFA174
Flight time 1h 38m
Altitude 37000
Route EGREP B417 PATOR T532 KSA N687 KFA M691 LADNA
Aircraft A321/M-SDE3FGHIRWY/LB1

Departure

Time 2026-05-07 14:25
Airport King Abdulaziz International Airport (OEJN)

Arrival

Time 2026-05-07 16:04
Airport Bahrain International Airport (OBBI)
Time Latitude Longitude Altitude Speed Heading
2026-05-07 14:00 21.66478 39.17121 36 ft 0 kts 79°
2026-05-07 14:14 21.66478 39.17118 36 ft 3 kts 80°
2026-05-07 14:14 21.66474 39.17091 36 ft 3 kts 80°
2026-05-07 14:14 21.66472 39.17072 35 ft 4 kts 125°
2026-05-07 14:14 21.66491 39.17058 34 ft 4 kts 161°
2026-05-07 14:15 21.66510 39.17051 35 ft 0 kts 160°
2026-05-07 14:18 21.66507 39.17052 35 ft 1 kts 160°
2026-05-07 14:18 21.66492 39.17059 34 ft 3 kts 159°
2026-05-07 14:19 21.66463 39.17071 33 ft 5 kts 159°
2026-05-07 14:19 21.66420 39.17081 36 ft 7 kts 180°
2026-05-07 14:19 21.66365 39.17069 36 ft 9 kts 193°
2026-05-07 14:19 21.66319 39.17026 36 ft 10 kts 249°
2026-05-07 14:20 21.66295 39.16952 36 ft 11 kts 249°
2026-05-07 14:20 21.66264 39.16868 36 ft 13 kts 248°
2026-05-07 14:20 21.66228 39.16776 36 ft 14 kts 248°
2026-05-07 14:20 21.66207 39.16706 35 ft 0 kts 251°
2026-05-07 14:21 21.66204 39.16697 36 ft 3 kts 251°
2026-05-07 14:21 21.66195 39.16670 36 ft 5 kts 251°
2026-05-07 14:21 21.66192 39.16661 34 ft 0 kts 251°
2026-05-07 14:23 21.66192 39.16660 34 ft 1 kts 251°
2026-05-07 14:23 21.66185 39.16635 35 ft 10 kts 253°
2026-05-07 14:24 21.66155 39.16544 34 ft 15 kts 250°
2026-05-07 14:24 21.66200 39.16457 33 ft 17 kts 336°
2026-05-07 14:24 21.66540 39.16319 35 ft 90 kts 339°
2026-05-07 14:24 21.67343 39.16004 32 ft 152 kts 339°
2026-05-07 14:25 21.68389 39.15584 603 ft 159 kts 336°
2026-05-07 14:25 21.69429 39.15174 1339 ft 158 kts 339°
2026-05-07 14:25 21.70462 39.14769 1885 ft 159 kts 339°
2026-05-07 14:25 21.71503 39.14361 2382 ft 160 kts 340°
2026-05-07 14:26 21.72566 39.13945 2739 ft 170 kts 339°
2026-05-07 14:26 21.73751 39.13479 2928 ft 192 kts 339°
2026-05-07 14:26 21.75081 39.12953 3123 ft 214 kts 339°
2026-05-07 14:26 21.76548 39.12373 3265 ft 235 kts 339°
2026-05-07 14:27 21.78167 39.11735 3374 ft 261 kts 339°
2026-05-07 14:27 21.79935 39.11039 3722 ft 277 kts 339°
2026-05-07 14:27 21.81762 39.10318 4323 ft 283 kts 339°
2026-05-07 14:27 21.83627 39.09583 4917 ft 288 kts 339°
2026-05-07 14:28 21.85504 39.08842 5667 ft 286 kts 339°
2026-05-07 14:28 21.87367 39.08106 6428 ft 285 kts 339°
2026-05-07 14:28 21.89227 39.07368 7100 ft 286 kts 338°
2026-05-07 14:28 21.91085 39.06582 7759 ft 288 kts 334°
2026-05-07 14:29 21.92329 39.06006 8208 ft 289 kts 334°
2026-05-07 14:29 21.94772 39.04821 9081 ft 292 kts 331°
2026-05-07 14:29 21.96026 39.04206 9526 ft 295 kts 331°
2026-05-07 14:29 21.97904 39.03286 10121 ft 299 kts 333°
2026-05-07 14:30 21.99854 39.02333 10349 ft 318 kts 332°
2026-05-07 14:30 22.01938 39.01318 10512 ft 338 kts 333°
2026-05-07 14:30 22.04108 39.00271 10951 ft 345 kts 333°
2026-05-07 14:30 22.06315 38.99216 11489 ft 349 kts 333°
2026-05-07 14:31 22.08550 38.98155 12057 ft 353 kts 332°
2026-05-07 14:31 22.10808 38.97083 12649 ft 356 kts 332°
2026-05-07 14:31 22.13198 38.96270 13195 ft 366 kts 347°
2026-05-07 14:31 22.15774 38.96177 13734 ft 377 kts
2026-05-07 14:32 22.18333 38.96886 14251 ft 385 kts 21°
2026-05-07 14:32 22.20646 38.98375 14761 ft 391 kts 38°
2026-05-07 14:32 22.22688 39.00330 15305 ft 394 kts 41°
2026-05-07 14:32 22.24734 39.02324 15845 ft 397 kts 41°
2026-05-07 14:33 22.26788 39.04331 16391 ft 400 kts 43°
2026-05-07 14:33 22.28646 39.06583 16910 ft 404 kts 54°
2026-05-07 14:33 22.30086 39.09197 17448 ft 406 kts 66°
2026-05-07 14:33 22.31048 39.12060 17942 ft 407 kts 77°
2026-05-07 14:34 22.31700 39.15048 18419 ft 410 kts 79°
2026-05-07 14:34 22.32350 39.18052 18867 ft 412 kts 79°
2026-05-07 14:34 22.33008 39.21080 19311 ft 416 kts 78°
2026-05-07 14:34 22.33683 39.24169 19765 ft 419 kts 78°
2026-05-07 14:35 22.34353 39.27238 20197 ft 422 kts 78°
2026-05-07 14:35 22.35029 39.30334 20634 ft 425 kts 78°
2026-05-07 14:35 22.35706 39.33452 21068 ft 428 kts 78°
2026-05-07 14:35 22.36389 39.36596 21473 ft 431 kts 78°
2026-05-07 14:36 22.37076 39.39758 21902 ft 433 kts 78°
2026-05-07 14:36 22.37764 39.42938 22308 ft 436 kts 78°
2026-05-07 14:36 22.38458 39.46145 22723 ft 440 kts 78°
2026-05-07 14:36 22.39154 39.49370 23109 ft 443 kts 78°
2026-05-07 14:37 22.39856 39.52629 23477 ft 446 kts 78°
2026-05-07 14:37 22.41275 39.59196 24132 ft 451 kts 78°
2026-05-07 14:37 22.41990 39.62503 24513 ft 453 kts 78°
2026-05-07 14:38 22.42705 39.65826 24852 ft 455 kts 78°
2026-05-07 14:38 22.43422 39.69161 25205 ft 458 kts 78°
2026-05-07 14:38 22.44142 39.72526 25531 ft 461 kts 78°
2026-05-07 14:38 22.44867 39.75911 25849 ft 463 kts 78°
2026-05-07 14:39 22.45730 39.79278 26179 ft 468 kts 70°
2026-05-07 14:39 22.47092 39.82485 26484 ft 471 kts 60°
2026-05-07 14:39 22.48931 39.85414 26848 ft 472 kts 50°
2026-05-07 14:39 22.51196 39.87995 27119 ft 474 kts 40°
2026-05-07 14:40 22.53683 39.90359 27418 ft 477 kts 40°
2026-05-07 14:40 22.56186 39.92738 27732 ft 480 kts 40°
2026-05-07 14:40 22.58702 39.95136 28050 ft 483 kts 40°
2026-05-07 14:40 22.61229 39.97552 28363 ft 486 kts 40°
2026-05-07 14:41 22.63769 39.99986 28678 ft 489 kts 40°
2026-05-07 14:41 22.66322 40.02434 29002 ft 492 kts 40°
2026-05-07 14:41 22.68890 40.04896 29302 ft 494 kts 40°
2026-05-07 14:41 22.71474 40.07371 29618 ft 497 kts 40°
2026-05-07 14:42 22.74109 40.09889 29894 ft 501 kts 40°
2026-05-07 14:42 22.76723 40.12395 30161 ft 503 kts 40°
2026-05-07 14:42 22.79354 40.14919 30391 ft 506 kts 40°
2026-05-07 14:42 22.81997 40.17454 30623 ft 509 kts 40°
2026-05-07 14:43 22.84655 40.20004 30849 ft 512 kts 40°
2026-05-07 14:43 22.87326 40.22568 31057 ft 514 kts 40°
2026-05-07 14:43 22.90014 40.25148 31285 ft 517 kts 40°
2026-05-07 14:43 22.92713 40.27741 31453 ft 520 kts 40°
2026-05-07 14:44 22.95426 40.30355 31631 ft 522 kts 40°
2026-05-07 14:44 22.98146 40.32976 31831 ft 524 kts 40°
2026-05-07 14:44 23.00872 40.35604 32098 ft 524 kts 40°
2026-05-07 14:44 23.03601 40.38236 32338 ft 525 kts 40°
2026-05-07 14:45 23.06336 40.40874 32590 ft 526 kts 40°
2026-05-07 14:45 23.09072 40.43513 32856 ft 527 kts 40°
2026-05-07 14:45 23.11812 40.46158 33083 ft 528 kts 40°
2026-05-07 14:45 23.14558 40.48812 33305 ft 529 kts 40°
2026-05-07 14:46 23.17305 40.51464 33576 ft 529 kts 40°
2026-05-07 14:46 23.20052 40.54122 33854 ft 529 kts 40°
2026-05-07 14:46 23.22800 40.56788 34092 ft 529 kts 41°
2026-05-07 14:46 23.25390 40.59638 34292 ft 530 kts 50°
2026-05-07 14:47 23.27590 40.62848 34531 ft 530 kts 60°
2026-05-07 14:47 23.29359 40.66358 34702 ft 528 kts 69°
2026-05-07 14:47 23.30706 40.70064 34888 ft 527 kts 73°
2026-05-07 14:47 23.31994 40.73795 35107 ft 528 kts 73°
2026-05-07 14:48 23.33296 40.77531 35350 ft 528 kts 73°
2026-05-07 14:48 23.34601 40.81267 35593 ft 528 kts 73°
2026-05-07 14:48 23.35902 40.85003 35825 ft 528 kts 73°
2026-05-07 14:48 23.37215 40.88789 36059 ft 527 kts 74°
2026-05-07 14:49 23.38505 40.92517 36284 ft 527 kts 74°
2026-05-07 14:49 23.39794 40.96245 36557 ft 525 kts 74°
2026-05-07 14:49 23.41083 40.99967 36776 ft 525 kts 74°
2026-05-07 14:49 23.42371 41.03686 36927 ft 525 kts 74°
2026-05-07 14:50 23.44938 41.11106 36971 ft 522 kts 75°
2026-05-07 14:50 23.47478 41.18512 36966 ft 521 kts 74°
2026-05-07 14:51 23.50012 41.25907 36963 ft 521 kts 74°
2026-05-07 14:51 23.52560 41.33304 36966 ft 521 kts 74°
2026-05-07 14:52 23.55099 41.40703 36972 ft 521 kts 74°
2026-05-07 14:52 23.57628 41.48110 36973 ft 522 kts 75°
2026-05-07 14:53 23.60158 41.55527 36982 ft 522 kts 75°
2026-05-07 14:53 23.62684 41.62944 36978 ft 522 kts 75°
2026-05-07 14:54 23.65205 41.70360 36991 ft 521 kts 75°
2026-05-07 14:54 23.67727 41.77779 36993 ft 522 kts 75°
2026-05-07 14:55 23.70145 41.85235 36981 ft 521 kts 76°
2026-05-07 14:55 23.72488 41.92772 36984 ft 521 kts 76°
2026-05-07 14:56 23.74825 42.00262 36974 ft 522 kts 75°
2026-05-07 14:56 23.77328 42.07707 36990 ft 523 kts 73°
2026-05-07 14:57 23.79940 42.15128 36993 ft 523 kts 73°
2026-05-07 14:57 23.82521 42.22549 36981 ft 523 kts 74°
2026-05-07 14:58 23.85048 42.29991 36996 ft 522 kts 74°
2026-05-07 14:58 23.87560 42.37432 37003 ft 522 kts 74°
2026-05-07 14:59 23.90074 42.44868 37006 ft 522 kts 74°
2026-05-07 14:59 23.92595 42.52315 37000 ft 523 kts 74°
2026-05-07 15:00 23.95125 42.59766 36995 ft 523 kts 74°
2026-05-07 15:00 23.97639 42.67230 36991 ft 523 kts 74°
2026-05-07 15:01 24.00151 42.74702 36999 ft 523 kts 74°
2026-05-07 15:01 24.02252 42.80965 37012 ft 524 kts 74°
2026-05-07 15:02 24.04756 42.88450 37004 ft 524 kts 74°
2026-05-07 15:02 24.07243 42.95939 37001 ft 524 kts 74°
2026-05-07 15:03 24.09710 43.03434 36983 ft 523 kts 74°
2026-05-07 15:03 24.12163 43.10932 37014 ft 523 kts 74°
2026-05-07 15:04 24.14620 43.18431 37007 ft 524 kts 74°
2026-05-07 15:04 24.17086 43.25941 36988 ft 524 kts 74°
2026-05-07 15:05 24.19544 43.33457 36992 ft 524 kts 74°
2026-05-07 15:05 24.21998 43.40983 36993 ft 524 kts 74°
2026-05-07 15:06 24.24446 43.48505 36999 ft 524 kts 74°
2026-05-07 15:06 24.26890 43.56027 36986 ft 524 kts 74°
2026-05-07 15:07 24.29342 43.63597 36975 ft 524 kts 74°
2026-05-07 15:07 24.31773 43.71122 36979 ft 523 kts 74°
2026-05-07 15:08 24.34203 43.78637 36987 ft 523 kts 74°
2026-05-07 15:08 24.36629 43.86158 36981 ft 522 kts 74°
2026-05-07 15:09 24.39041 43.93670 36981 ft 522 kts 75°
2026-05-07 15:09 24.41457 44.01179 36988 ft 522 kts 74°
2026-05-07 15:10 24.43868 44.08683 37019 ft 521 kts 74°
2026-05-07 15:10 24.45678 44.16323 37038 ft 515 kts 84°
2026-05-07 15:11 24.47009 44.24055 37018 ft 516 kts 84°
2026-05-07 15:11 24.48355 44.31790 37010 ft 516 kts 84°
2026-05-07 15:12 24.49701 44.39529 36995 ft 516 kts 84°
2026-05-07 15:12 24.51035 44.47253 36970 ft 515 kts 84°
2026-05-07 15:13 24.52364 44.54967 37000 ft 514 kts 84°
2026-05-07 15:13 24.53692 44.62687 36972 ft 514 kts 84°
2026-05-07 15:14 24.55012 44.70402 36965 ft 514 kts 84°
2026-05-07 15:14 24.56338 44.78171 36966 ft 514 kts 84°
2026-05-07 15:15 24.57651 44.85894 36967 ft 514 kts 84°
2026-05-07 15:15 24.58954 44.93607 36973 ft 514 kts 84°
2026-05-07 15:16 24.60257 45.01332 36950 ft 514 kts 84°
2026-05-07 15:16 24.61562 45.09053 36961 ft 514 kts 84°
2026-05-07 15:17 24.62853 45.16773 36953 ft 513 kts 84°
2026-05-07 15:17 24.64141 45.24483 36954 ft 513 kts 84°
2026-05-07 15:18 24.65421 45.32190 36956 ft 512 kts 84°
2026-05-07 15:18 24.66701 45.39896 36951 ft 512 kts 84°
2026-05-07 15:19 24.67975 45.47595 36951 ft 512 kts 84°
2026-05-07 15:19 24.69248 45.55298 36951 ft 512 kts 84°
2026-05-07 15:20 24.70519 45.63000 36946 ft 512 kts 84°
2026-05-07 15:20 24.72085 45.70649 36949 ft 516 kts 76°
2026-05-07 15:21 24.74154 45.78209 36957 ft 516 kts 76°
2026-05-07 15:21 24.76237 45.85825 36953 ft 517 kts 76°
2026-05-07 15:22 24.78301 45.93398 36952 ft 517 kts 76°
2026-05-07 15:22 24.80350 46.00977 36953 ft 517 kts 77°
2026-05-07 15:23 24.82397 46.08565 36960 ft 517 kts 76°
2026-05-07 15:23 24.84455 46.16155 36962 ft 517 kts 76°
2026-05-07 15:24 24.86508 46.23749 36956 ft 517 kts 76°
2026-05-07 15:24 24.88551 46.31349 36960 ft 517 kts 77°
2026-05-07 15:25 24.90579 46.38973 36940 ft 523 kts 76°
2026-05-07 15:25 24.92650 46.46725 36945 ft 532 kts 76°
2026-05-07 15:26 24.94763 46.54595 36945 ft 538 kts 76°
2026-05-07 15:26 24.96880 46.62523 36946 ft 539 kts 76°
2026-05-07 15:27 24.99452 46.70294 36948 ft 542 kts 66°
2026-05-07 15:27 25.02617 46.77847 36950 ft 543 kts 67°
2026-05-07 15:28 25.05771 46.85410 36957 ft 543 kts 67°
2026-05-07 15:28 25.08949 46.93041 36953 ft 544 kts 67°
2026-05-07 15:29 25.12102 47.00634 36949 ft 544 kts 66°
2026-05-07 15:29 25.15255 47.08231 36955 ft 545 kts 66°
2026-05-07 15:30 25.18411 47.15835 36957 ft 545 kts 67°
2026-05-07 15:30 25.21557 47.23446 36959 ft 545 kts 67°
2026-05-07 15:31 25.24697 47.31062 36954 ft 545 kts 67°
2026-05-07 15:31 25.27834 47.38682 36944 ft 545 kts 67°
2026-05-07 15:32 25.30967 47.46306 36950 ft 545 kts 66°
2026-05-07 15:32 25.34106 47.53933 36948 ft 545 kts 66°
2026-05-07 15:33 25.37235 47.61563 36946 ft 545 kts 66°
2026-05-07 15:33 25.40353 47.69196 36944 ft 545 kts 67°
2026-05-07 15:34 25.43469 47.76830 36936 ft 544 kts 67°
2026-05-07 15:34 25.46580 47.84463 36932 ft 544 kts 66°
2026-05-07 15:35 25.49679 47.92102 36929 ft 544 kts 67°
2026-05-07 15:35 25.52273 47.98509 36927 ft 544 kts 66°
2026-05-07 15:36 25.55380 48.06156 36922 ft 544 kts 66°
2026-05-07 15:36 25.58487 48.13798 36923 ft 544 kts 66°
2026-05-07 15:37 25.61575 48.21455 36924 ft 544 kts 67°
2026-05-07 15:37 25.64655 48.29119 36919 ft 544 kts 66°
2026-05-07 15:38 25.67742 48.36771 36915 ft 544 kts 66°
2026-05-07 15:38 25.71541 48.44008 36901 ft 544 kts 57°
2026-05-07 15:39 25.75606 48.51080 36914 ft 544 kts 57°
2026-05-07 15:39 25.79663 48.58166 36913 ft 544 kts 57°
2026-05-07 15:40 25.83702 48.65255 36908 ft 543 kts 57°
2026-05-07 15:40 25.87739 48.72347 36910 ft 543 kts 57°
2026-05-07 15:41 25.91791 48.79467 36907 ft 543 kts 57°
2026-05-07 15:41 25.95827 48.86544 36908 ft 542 kts 57°
2026-05-07 15:42 25.99970 48.93555 36817 ft 540 kts 55°
2026-05-07 15:42 26.02047 48.96993 36434 ft 532 kts 55°
2026-05-07 15:42 26.04104 49.00397 35798 ft 530 kts 55°
2026-05-07 15:43 26.06159 49.03813 34967 ft 534 kts 56°
2026-05-07 15:43 26.08213 49.07257 34360 ft 532 kts 56°
2026-05-07 15:43 26.10248 49.10695 34127 ft 535 kts 56°
2026-05-07 15:43 26.12296 49.14168 33906 ft 538 kts 56°
2026-05-07 15:44 26.14350 49.17652 33363 ft 539 kts 56°
2026-05-07 15:44 26.16421 49.21161 32213 ft 544 kts 56°
2026-05-07 15:44 26.18495 49.24671 31452 ft 540 kts 56°
2026-05-07 15:44 26.20554 49.28164 30524 ft 540 kts 56°
2026-05-07 15:45 26.22613 49.31666 29510 ft 540 kts 56°
2026-05-07 15:45 26.24664 49.35158 28413 ft 538 kts 56°
2026-05-07 15:45 26.26713 49.38636 27325 ft 536 kts 56°
2026-05-07 15:45 26.28749 49.42085 26450 ft 529 kts 56°
2026-05-07 15:46 26.32758 49.48865 24539 ft 519 kts 56°
2026-05-07 15:46 26.34727 49.52200 23724 ft 511 kts 56°
2026-05-07 15:46 26.36661 49.55485 22880 ft 503 kts 56°
2026-05-07 15:47 26.38563 49.58722 22012 ft 494 kts 56°
2026-05-07 15:47 26.40452 49.61946 21179 ft 486 kts 57°
2026-05-07 15:47 26.42290 49.65090 20345 ft 480 kts 57°
2026-05-07 15:47 26.44097 49.68184 19557 ft 472 kts 57°
2026-05-07 15:48 26.45874 49.71225 18825 ft 464 kts 57°
2026-05-07 15:48 26.47536 49.74270 18157 ft 455 kts 63°
2026-05-07 15:48 26.48700 49.77500 17443 ft 444 kts 74°
2026-05-07 15:48 26.49318 49.80828 16825 ft 432 kts 84°
2026-05-07 15:49 26.49418 49.84133 16240 ft 421 kts 94°
2026-05-07 15:49 26.49242 49.87362 15659 ft 413 kts 95°
2026-05-07 15:49 26.49064 49.90531 15084 ft 405 kts 95°
2026-05-07 15:49 26.48890 49.93647 14507 ft 399 kts 95°
2026-05-07 15:50 26.48722 49.96687 14079 ft 388 kts 95°
2026-05-07 15:50 26.48558 49.99670 13473 ft 383 kts 95°
2026-05-07 15:50 26.48392 50.02671 12838 ft 393 kts 95°
2026-05-07 15:50 26.48220 50.05727 12199 ft 394 kts 95°
2026-05-07 15:51 26.48048 50.08767 11529 ft 391 kts 95°
2026-05-07 15:51 26.47878 50.11779 10987 ft 386 kts 96°
2026-05-07 15:51 26.47709 50.14766 10895 ft 387 kts 94°
2026-05-07 15:51 26.47538 50.17761 10805 ft 387 kts 95°
2026-05-07 15:52 26.47367 50.20751 10646 ft 386 kts 96°
2026-05-07 15:52 26.47196 50.23740 10477 ft 385 kts 95°
2026-05-07 15:52 26.47025 50.26716 10303 ft 384 kts 95°
2026-05-07 15:52 26.46854 50.29688 10140 ft 383 kts 95°
2026-05-07 15:53 26.46681 50.32652 9964 ft 382 kts 96°
2026-05-07 15:53 26.46507 50.35606 9304 ft 381 kts 95°
2026-05-07 15:53 26.46070 50.38556 8920 ft 381 kts 109°
2026-05-07 15:53 26.45068 50.41257 8661 ft 370 kts 114°
2026-05-07 15:54 26.44063 50.43820 8417 ft 351 kts 114°
2026-05-07 15:54 26.43108 50.46256 8179 ft 335 kts 114°
2026-05-07 15:54 26.42194 50.48590 7939 ft 321 kts 114°
2026-05-07 15:54 26.41317 50.50833 7698 ft 309 kts 114°
2026-05-07 15:55 26.40473 50.52991 7469 ft 299 kts 114°
2026-05-07 15:55 26.39651 50.55084 7242 ft 290 kts 114°
2026-05-07 15:55 26.38850 50.57126 6976 ft 286 kts 114°
2026-05-07 15:55 26.37956 50.59099 6656 ft 284 kts 121°
2026-05-07 15:56 26.36902 50.60960 6350 ft 284 kts 123°
2026-05-07 15:56 26.35828 50.62804 6085 ft 283 kts 123°
2026-05-07 15:56 26.34751 50.64641 5759 ft 283 kts 123°
2026-05-07 15:56 26.33665 50.66475 5404 ft 285 kts 123°
2026-05-07 15:57 26.32575 50.68305 5050 ft 282 kts 123°
2026-05-07 15:57 26.31491 50.70114 4700 ft 279 kts 123°
2026-05-07 15:57 26.30415 50.71907 4345 ft 277 kts 122°
2026-05-07 15:57 26.29346 50.73681 4048 ft 272 kts 123°
2026-05-07 15:58 26.28316 50.75385 3976 ft 258 kts 123°
2026-05-07 15:58 26.27335 50.76991 3902 ft 243 kts 122°
2026-05-07 15:58 26.26402 50.78509 3850 ft 236 kts 123°
2026-05-07 15:58 26.25469 50.80009 3717 ft 236 kts 124°
2026-05-07 15:59 26.24246 50.81182 3476 ft 232 kts 155°
2026-05-07 15:59 26.22692 50.81440 3229 ft 227 kts 187°
2026-05-07 15:59 26.21255 50.80817 2878 ft 218 kts 210°
2026-05-07 15:59 26.20018 50.79922 2655 ft 206 kts 224°
2026-05-07 16:00 26.19327 50.78585 2534 ft 198 kts 259°
2026-05-07 16:00 26.19309 50.77095 2395 ft 192 kts 287°
2026-05-07 16:00 26.19888 50.75793 2208 ft 187 kts 305°
2026-05-07 16:00 26.20593 50.74585 1991 ft 184 kts 306°
2026-05-07 16:01 26.21290 50.73387 1762 ft 179 kts 306°
2026-05-07 16:01 26.21941 50.72260 1549 ft 169 kts 306°
2026-05-07 16:01 26.22580 50.71158 1332 ft 166 kts 305°
2026-05-07 16:01 26.23176 50.70125 1121 ft 151 kts 307°
2026-05-07 16:02 26.23717 50.69188 939 ft 139 kts 307°
2026-05-07 16:02 26.24237 50.68291 781 ft 138 kts 308°
2026-05-07 16:02 26.24750 50.67403 617 ft 135 kts 308°
2026-05-07 16:02 26.25259 50.66524 437 ft 134 kts 305°
2026-05-07 16:03 26.25762 50.65661 269 ft 133 kts 306°
2026-05-07 16:03 26.26262 50.64793 55 ft 133 kts 306°
2026-05-07 16:03 26.26721 50.63997 17 ft 107 kts 301°
2026-05-07 16:03 26.27027 50.63461 15 ft 57 kts 302°
2026-05-07 16:04 26.27179 50.63199 17 ft 35 kts 303°
2026-05-07 16:04 26.27253 50.62955 17 ft 32 kts 269°
2026-05-07 16:04 26.27260 50.62757 19 ft 20 kts 271°
2026-05-07 16:04 26.27229 50.62646 18 ft 12 kts 222°
2026-05-07 16:05 26.27169 50.62654 19 ft 10 kts 126°
2026-05-07 16:05 26.27128 50.62720 20 ft 11 kts 122°
2026-05-07 16:05 26.27087 50.62797 21 ft 12 kts 121°
2026-05-07 16:05 26.27039 50.62880 22 ft 13 kts 124°
2026-05-07 16:06 26.26983 50.62974 22 ft 16 kts 122°
2026-05-07 16:06 26.26922 50.63085 22 ft 18 kts 123°
2026-05-07 16:06 26.26848 50.63209 21 ft 20 kts 123°
2026-05-07 16:06 26.26785 50.63321 21 ft 1 kts 121°
2026-05-07 16:07 26.26772 50.63332 21 ft 5 kts 158°
2026-05-07 16:07 26.26731 50.63306 22 ft 7 kts 220°
2026-05-07 16:07 26.26704 50.63285 21 ft 4 kts 213°
2026-05-07 16:07 26.26689 50.63274 21 ft 1 kts 212°
2026-05-07 16:08 26.26687 50.63273 21 ft 0 kts 212°